Tracking 17855 objects as of 26-September-2016
HD Live streaming from Space Station
objects crossing your sky now

SL-8 DEB

Track SL-8 DEB now!
10-day predictions


NORAD ID: 18545
Int'l Code: 1986-100C
Perigee: 881.6 km
Apogee: 905.9 km
Inclination: 82.9 °
Period: 102.7 minutes
Semi major axis: 7264 km
RCS: 0.0131 m2 (small)
Launch date: December 17, 1986
Source: Commonwealth of Independent States (former USSR) (CIS)
Launch site: PLESETSK MISSILE AND SPACE COMPLEX (PKMTR)

Note: This is SATELLITE DEBRIS
Your satellite tracking list
Your tracking list is empty





NASA's NSSDC Master Catalog

Two Line Element Set (TLE):
1 18545U 86100C   16269.32834174  .00000591  00000-0  37658-3 0  9991
2 18545  82.9292  26.5078 0016681 177.7492 211.2505 14.02080359506845
Source of the keplerian elements: AFSPC

N2YO: 413